Location: Ladirat
(44.8151°N, 1.9702°E)
Time: 21:30:38
(UTC+00:00)

ADEOS - Pass Details

Date: 15 May 2026
Orbit: 789 x 792 km, 98.8° (Epoch: 10 June)

Event Time Altitude Azimuth Distance (km) Brightness Sun altitude
Exits shadow 20:25:07 - 169° (S) 2,555 5.7 -11.2°
Reaches altitude 10° 20:25:38 10° 170° (S) 2,351 5.6 -11.2°
Maximum altitude 20:30:50 77° 257° (WSW) 818 3.7 -11.9°
Drops below altitude 10° 20:36:04 10° 343° (NNW) 2,367 7.0 -12.6°
Sets 20:38:24 0° 345° (NNW) 3,300 7.9 -12.9°
